Regional Weather Roundup
Issued by NWS

Home | Current Version | Previous Version | Graphics & Text | Print | Product List | Glossary Off
Versions: 1 2 3 4 5 6 7 8 9 10 11 12 13 14 15 16 17 18 19 20 21 22 23 24 25 26 27 28 29 30 31 32 33 34 35 36 37 38 39 40 41 42 43 44 45 46 47 48 49 50

000
ASUS43 KFSD 190610
RWRSD

WEATHER ROUNDUP FOR SOUTH DAKOTA
NATIONAL WEATHER SERVICE SIOUX FALLS SD
1200 AM CST SUN NOV 19 2017

NOTE: "FAIR" INDICATES FEW OR NO CLOUDS BELOW 12,000 FEET WITH NO
SIGNIFICANT WEATHER AND/OR OBSTRUCTIONS TO VISIBILITY.


SDZ001>005-009-010-012>017-190700-
NORTHWEST AND NORTH CENTRAL SOUTH DAKOTA

CITY           SKY/WX    TMP DP  RH WIND       PRES   REMARKS
BUFFALO          N/A     27  20  75 W10       30.01S WCI  17
FAITH            N/A     28  22  78 SW8       30.10S WCI  20
MOBRIDGE       CLOUDY    19  14  81 CALM      30.07R
$$

SDZ012>016-024>037-041>051-057-063-072>074-190700-
SOUTHWEST AND SOUTH CENTRAL SOUTH DAKOTA

CITY           SKY/WX    TMP DP  RH WIND       PRES   REMARKS
RAPID CTY ARPT CLEAR     23  15  71 CALM      30.13F
PIERRE         CLOUDY    26  22  84 SW8       30.12S WCI  18
CUSTER         CLOUDY    27  11  51 W8        30.10F WCI  19
ELLSWORTH AFB  CLEAR     27  16  63 SW5       30.11F WCI  22
PHILIP         CLEAR     28  23  81 W7        30.14F WCI  21
PINE RIDGE     CLEAR     19  13  77 W3        30.17F
SPEARFISH      FAIR      36  14  41 W10G18    30.09F
WINNER         FAIR      30  22  72 SW7       30.15S WCI  23
$$

SDZ004>011-016>023-039-040-190700-
NORTHEAST SOUTH DAKOTA

CITY           SKY/WX    TMP DP  RH WIND       PRES   REMARKS
ABERDEEN       CLEAR     13  11  92 SW5       30.11R WCI   5
WATERTOWN      CLEAR     22  17  81 W8        30.07S WCI  12
BROOKINGS      CLEAR     20  14  77 NW6       30.11R WCI  12
SISSETON         N/A     19  13  77 W7        30.07F WCI  10
$$

SDZ017-020-022-023-036>040-048>070-190700-
SOUTHEAST SOUTH DAKOTA

CITY           SKY/WX    TMP DP  RH WIND       PRES   REMARKS
SIOUX FALLS    CLEAR     24  16  71 W7        30.13F WCI  16
HURON          CLEAR     21  15  78 W9        30.14S WCI  11
CHAMBERLAIN    CLEAR     21  20  94 S3        30.16S
MITCHELL       CLEAR     23  17  78 SW9       30.17F WCI  13
YANKTON        CLEAR     25  19  78 W7        30.20R WCI  17
$$

ABBREVIATIONS USED IN REMARKS
   TC - TEMPERATURE IN CELSIUS
  WCI - WIND CHILL INDEX
   HX - HEAT INDEX
  VSB - VISIBILITY




USA.gov is the U.S. government's official web portal to all federal, state and local government web resources and services.